Location: Mountain_View
(35.6670°N, 81.4000°W)
Time: 08:42:28
(UTC-05:00)

Amateur Radio Satellites - All Passes

Search period start: 20 December 2014 08:12
Search period end: 21 December 2014 08:12
Location: Mountain_View, 35.6670°N, 81.4000°W

Satellite Date Start Highest point End Downlink Frequencies (MHz)
Time Altitude Azimuth
GOMX 1 20 Dec 08:15:06 08:16:56 12° 92° (E) 08:18:47 467.674
MaSat-1 20 Dec 08:29:51 08:31:44 20° 109° (ESE) 08:33:32 437.345
DOVE 4 20 Dec 08:41:43 08:44:57 18° 94° (E) 08:48:17 437.250
VERMONT LUNAR 20 Dec 08:43:35 08:47:03 55° 207° (SSW) 08:50:30 437.305
HO-68 20 Dec 08:54:21 09:01:12 47° 100° (E) 09:07:59 435.675
PHONESAT 2.4 20 Dec 08:54:47 08:58:24 70° 205° (SSW) 09:02:01 2401.200-2431.200
AAUSAT CUBESAT 2 20 Dec 08:59:33 09:03:07 26° 96° (E) 09:06:40 437.432
ANTELSAT 20 Dec 09:09:36 09:11:27 13° 65° (ENE) 09:13:19 437.575/2403.000
CINEMA 3 20 Dec 09:10:36 09:14:11 21° 95° (E) 09:17:51 145.822/145.860
CANX-2 20 Dec 09:10:47 09:15:06 66° 101° (E) 09:19:22 2200.000
BRITE-PL 20 Dec 09:21:22 09:26:08 89° 103° (ESE) 09:31:18 437.365/2234.400
QB50P1 20 Dec 09:23:57 09:24:47 11° 65° (ENE) 09:25:37 145.935-145.965
COMPASS 1 20 Dec 09:33:59 09:38:16 81° 102° (ESE) 09:42:30 437.405
UWE-3 20 Dec 09:36:38 09:39:59 20° 94° (E) 09:43:22 435.000/436.395/437.385
FUNcube-1 20 Dec 09:37:32 09:40:23 16° 93° (E) 09:43:14 145.935
SEEDS 20 Dec 09:38:54 09:43:11 73° 284° (WNW) 09:47:25 437.485
CUTE 1.7 + AOD 2 20 Dec 09:41:45 09:45:59 57° 285° (WNW) 09:50:12 437.475
CUSAT 1 20 Dec 09:42:05 09:45:20 51° 93° (E) 09:49:39 437.405
TIGRISAT 20 Dec 09:43:16 09:47:00 29° 70° (ENE) 09:50:49 435.000
POPSAT HIP 1 20 Dec 09:49:56 09:53:10 22° 69° (ENE) 09:56:24 437.405
GOMX 1 20 Dec 09:50:31 09:55:16 64° 284° (WNW) 10:00:21 467.674
DX 1 20 Dec 09:53:14 09:57:18 39° 99° (E) 10:01:21 434.975-435.025
DELFI C3 20 Dec 09:53:31 09:57:28 44° 99° (E) 10:01:23 145.870
AISAT 20 Dec 09:54:32 09:56:25 12° 93° (E) 09:58:17 437.250
50 SAT 20 Dec 09:58:03 09:58:48 10° 92° (E) 09:59:34 437.505
UNISAT 6 20 Dec 10:11:31 10:15:48 65° 75° (ENE) 10:20:13 437.425
HUMSAT D 20 Dec 10:14:15 10:17:45 23° 96° (E) 10:21:14 437.325/437.525
Oscar 11 20 Dec 10:16:23 10:20:45 78° 284° (WNW) 10:25:05 145.826/435.025
DUCHIFAT 1 20 Dec 10:17:16 10:21:16 45° 74° (ENE) 10:25:17 145.980
DOVE 4 20 Dec 10:18:14 10:22:48 44° 286° (WNW) 10:27:35 437.250
BUGSAT 1 20 Dec 10:18:41 10:22:28 37° 73° (ENE) 10:26:13 437.445
UKube-1 20 Dec 10:24:36 10:28:57 89° 278° (W) 10:33:16 .
QB50P2 20 Dec 10:30:18 10:34:29 69° 76° (ENE) 10:38:41 145.880/145.840
DANDE 20 Dec 10:32:01 10:35:07 40° 285° (WNW) 10:39:09 436.750
CUBEBUG 2 20 Dec 10:32:54 10:37:34 82° 283° (WNW) 10:42:19 437.445
PHONESAT 2.4 20 Dec 10:34:53 10:36:40 13° 218° (SW) 10:38:27 2401.200-2431.200
AAUSAT CUBESAT 2 20 Dec 10:35:22 10:38:37 22° 290° (WNW) 10:41:52 437.432
POLYITAN 1 20 Dec 10:38:58 10:43:10 88° 76° (ENE) 10:47:24 437.675
RS-15 20 Dec 10:39:51 10:48:44 30° 104° (ESE) 10:57:31 29.354- 29.394
NANOSAT C BR1 20 Dec 10:41:34 10:45:46 87° 257° (WSW) 10:50:00 145.865
HO-68 20 Dec 10:42:34 10:48:35 30° 296° (WNW) 10:54:34 435.675
ANTELSAT 20 Dec 10:43:30 10:47:43 52° 260° (W) 10:52:05 437.575/2403.000
ZACube-1 20 Dec 10:45:27 10:50:00 82° 283° (WNW) 10:54:36 437.345
VELOX 1 20 Dec 10:45:59 10:50:17 49° 100° (E) 10:54:34 145.980
CINEMA 3 20 Dec 10:47:03 10:51:24 36° 288° (WNW) 10:55:53 145.822/145.860
ESTCUBE 1 20 Dec 10:47:47 10:51:04 20° 95° (E) 10:54:19 437.505/2401.250
YUBILEINY 20 Dec 10:55:12 11:03:33 49° 78° (ENE) 11:11:52 435.215
QB50P1 20 Dec 10:56:00 11:00:08 57° 259° (W) 11:04:18 145.935-145.965
UWE-3 20 Dec 11:12:22 11:16:33 35° 288° (WNW) 11:20:46 435.000/436.395/437.385
FUNcube-1 20 Dec 11:12:35 11:16:50 41° 287° (WNW) 11:21:07 145.935
O/OREOS (USA 219) 20 Dec 11:15:38 11:20:09 80° 251° (WSW) 11:24:41 437.305
TIGRISAT 20 Dec 11:20:31 11:23:44 20° 266° (W) 11:27:02 435.000
POPSAT HIP 1 20 Dec 11:25:24 11:28:55 26° 264° (W) 11:32:26 437.405
AISAT 20 Dec 11:28:59 11:33:16 49° 286° (WNW) 11:37:33 437.250
50 SAT 20 Dec 11:30:14 11:34:16 51° 285° (WNW) 11:38:18 437.505
DELFI C3 20 Dec 11:30:31 11:32:18 13° 294° (WNW) 11:34:05 145.870
DX 1 20 Dec 11:30:32 11:33:12 16° 293° (WNW) 11:35:52 434.975-435.025
JUGNU 20 Dec 11:33:20 11:34:55 11° 166° (SSE) 11:36:30 437.505
CUBEBUG 1 20 Dec 11:36:17 11:40:36 69° 102° (ESE) 11:44:55 437.445
HUMSAT D 20 Dec 11:49:52 11:53:27 26° 289° (WNW) 11:57:02 437.325/437.525
Oscar 19 20 Dec 11:52:45 11:55:16 14° 63° (ENE) 11:57:47 437.125/150
DUCHIFAT 1 20 Dec 11:55:44 11:57:20 12° 268° (W) 11:58:57 145.980
BUGSAT 1 20 Dec 11:55:54 11:58:04 14° 266° (W) 12:00:14 437.445
ESTCUBE 1 20 Dec 12:23:58 12:27:57 32° 289° (WNW) 12:31:55 437.505/2401.250
VELOX 1 20 Dec 12:24:18 12:26:25 13° 295° (WNW) 12:28:31 145.980
BEESAT 3 20 Dec 12:28:27 12:31:02 17° 109° (ESE) 12:33:39 437.485
TISAT 1 20 Dec 12:43:29 12:47:44 83° 284° (WNW) 12:51:57 437.305
SPROUT 20 Dec 12:45:40 12:49:59 85° 283° (WNW) 12:54:17 437.525
RS-15 20 Dec 12:49:16 13:00:08 67° 303° (WNW) 13:11:03 29.354- 29.394
YUBILEINY 20 Dec 12:52:37 12:59:55 32° 275° (W) 13:07:15 435.215
BEESAT 2 20 Dec 13:06:34 13:10:25 41° 114° (ESE) 13:14:19 435.950
JUGNU 20 Dec 13:19:33 13:23:10 17° 176° (S) 13:26:47 437.505
SWISSCUBE 20 Dec 13:21:08 13:25:29 35° 98° (E) 13:29:47 437.505
ITUPSAT 1 20 Dec 13:21:33 13:25:48 31° 97° (E) 13:30:00 437.325
PCSat 20 Dec 13:28:53 13:33:59 44° 111° (ESE) 13:39:06 145.827
Oscar 19 20 Dec 13:28:55 13:33:59 65° 258° (WSW) 13:39:08 437.125/150
Gurwin Techsat 1B 20 Dec 13:37:57 13:42:38 33° 70° (ENE) 13:47:19 435.225
M-CUBED/EXP-1 PRIME 20 Dec 13:39:59 13:42:35 16° 96° (E) 13:45:04 437.505
ITAMSAT 1 20 Dec 13:43:59 13:49:05 64° 74° (ENE) 13:54:13 435.822/435.867
BEESAT 20 Dec 13:45:55 13:50:39 61° 101° (E) 13:55:20 436.000
HORYU 2 20 Dec 13:46:14 13:48:01 12° 64° (ENE) 13:49:49 437.375
ISS 20 Dec 13:51:43 13:55:00 65° 319° (NW) 13:58:17 145.825
AO-7 20 Dec 13:58:54 14:04:00 18° 54° (NE) 14:09:07 29.400- 29.500
BEESAT 3 20 Dec 14:05:06 14:08:53 36° 304° (NW) 14:12:45 437.485
AIST 2 20 Dec 14:09:54 14:14:07 84° 299° (WNW) 14:18:25 435.215
SRMSAT 20 Dec 14:22:44 14:26:07 16° 174° (S) 14:29:29 437.500
BEESAT 2 20 Dec 14:46:05 14:48:50 17° 311° (NW) 14:51:37 435.950
AUBIESAT-1 20 Dec 14:48:04 14:52:21 80° 288° (WNW) 14:56:14 437.475
STARS 20 Dec 14:50:42 14:54:51 38° 99° (E) 14:58:59 437.465
KKS-1 20 Dec 14:53:40 14:58:07 65° 101° (ESE) 15:02:34 437.445
SWISSCUBE 20 Dec 14:59:33 15:03:05 21° 293° (WNW) 15:06:36 437.505
ITUPSAT 1 20 Dec 14:59:46 15:03:29 23° 292° (WNW) 15:07:11 437.325
RS-15 20 Dec 15:07:40 15:15:06 20° 330° (NNW) 15:22:40 29.354- 29.394
JUGNU 20 Dec 15:08:03 15:11:27 16° 187° (S) 15:14:51 437.505
PCSat 20 Dec 15:13:16 15:17:33 24° 307° (NW) 15:21:53 145.827
M-CUBED/EXP-1 PRIME 20 Dec 15:13:50 15:17:46 35° 294° (WNW) 15:21:23 437.505
Gurwin Techsat 1B 20 Dec 15:18:08 15:22:33 27° 264° (W) 15:26:59 435.225
HORYU 2 20 Dec 15:19:48 15:24:10 56° 259° (W) 15:28:35 437.375
BEESAT 20 Dec 15:25:52 15:27:55 13° 296° (WNW) 15:29:59 436.000
ITAMSAT 1 20 Dec 15:26:44 15:28:57 13° 268° (W) 15:31:11 435.822/435.867
ISS 20 Dec 15:31:06 15:32:07 11° 337° (NNW) 15:33:09 145.825
JAS-2 20 Dec 15:35:53 15:42:03 28° 66° (ENE) 15:47:50 435.910
AO-7 20 Dec 15:47:17 15:55:37 88° 72° (ENE) 16:04:01 29.400- 29.500
SRMSAT 20 Dec 16:10:58 16:14:32 16° 184° (S) 16:18:06 437.500
AIST 1 20 Dec 16:27:12 16:31:25 49° 93° (E) 16:35:38
STARS 20 Dec 16:28:08 16:31:00 17° 293° (WNW) 16:33:51 437.465
KKS-1 20 Dec 16:33:15 16:34:10 11° 296° (WNW) 16:35:06 437.445
Cubesat XI-IV 20 Dec 16:40:26 16:43:23 15° 63° (ENE) 16:46:19 437.490
GONETS M04 20 Dec 16:50:02 16:58:39 59° 80° (E) 17:07:10
CUTE-I 20 Dec 17:11:50 17:16:24 30° 69° (ENE) 17:20:57 437.470
JAS-2 20 Dec 17:19:08 17:26:41 55° 260° (W) 17:33:42 435.910
RS-15 20 Dec 17:29:39 17:34:06 13° 9° (N) 17:38:37 29.354- 29.394
MOZHAYETS 4 20 Dec 17:38:31 17:43:06 65° 285° (WNW) 17:47:38
AO-7 20 Dec 17:44:35 17:49:14 16° 268° (W) 17:53:55 29.400- 29.500
SRMSAT 20 Dec 18:01:30 18:02:56 11° 194° (SSW) 18:04:21 437.500
MaSat-1 20 Dec 18:03:17 18:04:35 13° 61° (ENE) 18:05:54 437.345
AIST 1 20 Dec 18:07:45 18:09:21 12° 288° (WNW) 18:10:56
Cubesat XI-IV 20 Dec 18:17:38 18:22:54 62° 259° (WSW) 18:28:11 437.490
PRISM 20 Dec 18:24:44 18:28:48 52° 100° (E) 18:32:49 437.425
GONETS M04 20 Dec 18:48:00 18:54:47 26° 277° (W) 19:01:31
CUTE-I 20 Dec 18:51:45 18:56:21 30° 263° (W) 19:00:59 437.470
CUBESAT XI-V 20 Dec 19:01:18 19:05:53 65° 101° (E) 19:10:26 437.345
STRAND 1 20 Dec 19:10:20 19:15:24 64° 102° (ESE) 19:20:26 437.568
HO-68 20 Dec 19:20:40 19:26:24 27° 62° (ENE) 19:32:08 435.675
DANDE 20 Dec 19:31:49 19:37:25 21° 70° (ENE) 19:43:24 436.750
MaSat-1 20 Dec 19:36:37 19:37:44 12° 252° (WSW) 19:38:51 437.345
RS-15 20 Dec 19:42:02 19:51:47 32° 43° (NE) 20:01:49 29.354- 29.394
DOVE 4 20 Dec 19:48:04 19:48:32 10° 65° (ENE) 19:49:00 437.250
AAUSAT CUBESAT 2 20 Dec 19:49:41 19:51:43 13° 66° (ENE) 19:53:44 437.432
CANX-2 20 Dec 20:01:20 20:05:08 32° 72° (ENE) 20:08:57 2200.000
PRISM 20 Dec 20:02:39 20:03:50 11° 295° (WNW) 20:05:00 437.425
CINEMA 3 20 Dec 20:12:13 20:13:39 12° 65° (ENE) 20:15:07 145.822/145.860
CUSAT 1 20 Dec 20:21:45 20:29:27 52° 78° (ENE) 20:37:42 437.405
ISS 20 Dec 20:22:28 20:25:32 36° 37° (NE) 20:28:35 145.825
COMPASS 1 20 Dec 20:22:55 20:26:48 37° 73° (ENE) 20:30:43 437.405
SEEDS 20 Dec 20:28:16 20:32:22 53° 75° (ENE) 20:36:32 437.485
BRITE-PL 20 Dec 20:30:19 20:34:31 73° 76° (ENE) 20:38:39 437.365/2234.400
CUTE 1.7 + AOD 2 20 Dec 20:31:39 20:35:52 69° 76° (ENE) 20:40:08 437.475
UWE-3 20 Dec 20:34:08 20:34:52 10° 64° (ENE) 20:35:36 435.000/436.395/437.385
DELFI C3 20 Dec 20:40:05 20:43:07 20° 69° (ENE) 20:46:09 145.870
CUBESAT XI-V 20 Dec 20:41:28 20:42:43 11° 296° (WNW) 20:43:59 437.345
DX 1 20 Dec 20:46:40 20:50:09 24° 69° (ENE) 20:53:39 434.975-435.025
STRAND 1 20 Dec 20:51:33 20:54:00 14° 297° (WNW) 20:56:27 437.568
SO-50 20 Dec 20:51:59 20:56:21 55° 116° (ESE) 21:00:53 436.795
GOMX 1 20 Dec 20:56:38 21:00:47 79° 258° (WSW) 21:04:57 467.674
HUMSAT D 20 Dec 21:05:56 21:07:25 12° 66° (ENE) 21:08:53 437.325/437.525
HO-68 20 Dec 21:06:40 21:13:39 54° 259° (WSW) 21:20:40 435.675
Oscar 11 20 Dec 21:08:12 21:12:25 55° 75° (ENE) 21:16:40 145.826/435.025
DANDE 20 Dec 21:13:30 21:21:26 83° 263° (W) 21:30:10 436.750
UKube-1 20 Dec 21:16:49 21:21:01 52° 74° (ENE) 21:25:14 .
DOVE 4 20 Dec 21:21:45 21:25:47 54° 260° (W) 21:29:53 437.250
AAUSAT CUBESAT 2 20 Dec 21:22:56 21:26:57 44° 261° (W) 21:31:00 437.432
CUBEBUG 2 20 Dec 21:28:49 21:32:53 57° 75° (ENE) 21:37:03 437.445
BEESAT 2 20 Dec 21:30:43 21:32:44 13° 47° (NE) 21:34:45 435.950
CANX-2 20 Dec 21:38:13 21:41:06 18° 266° (W) 21:44:01 2200.000
ZACube-1 20 Dec 21:39:00 21:43:02 53° 74° (ENE) 21:47:11 437.345
VELOX 1 20 Dec 21:41:23 21:45:17 31° 71° (ENE) 21:49:11 145.980
ESTCUBE 1 20 Dec 21:46:00 21:48:22 14° 66° (ENE) 21:50:44 437.505/2401.250
CINEMA 3 20 Dec 21:46:22 21:50:23 49° 261° (W) 21:54:29 145.822/145.860
RS-15 20 Dec 21:53:54 22:05:14 76° 245° (WSW) 22:17:05 29.354- 29.394
ISS 20 Dec 21:59:40 22:01:53 17° 231° (SW) 22:04:06 145.825
COMPASS 1 20 Dec 22:00:12 22:02:38 15° 267° (W) 22:05:04 437.405
CUSAT 1 20 Dec 22:05:21 22:12:15 33° 271° (W) 22:19:32 437.405
FUNcube-1 20 Dec 22:05:37 22:09:45 73° 259° (WSW) 22:14:00 145.935
UWE-3 20 Dec 22:06:46 22:10:50 57° 260° (W) 22:15:02 435.000/436.395/437.385
UNISAT 6 20 Dec 22:07:33 22:10:50 19° 94° (E) 22:14:06 437.425
SEEDS 20 Dec 22:07:37 22:08:29 11° 269° (W) 22:09:21 437.485
DELFI C3 20 Dec 22:14:42 22:18:11 27° 264° (W) 22:21:42 145.870
50 SAT 20 Dec 22:15:30 22:19:27 65° 76° (ENE) 22:23:28 437.505
PCSat 20 Dec 22:20:16 22:24:19 21° 51° (NE) 22:28:21 145.827
QB50P2 20 Dec 22:20:27 22:22:48 14° 93° (E) 22:25:08 145.880/145.840
DX 1 20 Dec 22:22:42 22:26:17 25° 263° (W) 22:29:52 434.975-435.025
AISAT 20 Dec 22:24:03 22:28:28 80° 257° (WSW) 22:32:54 437.250
BEESAT 3 20 Dec 22:27:14 22:31:19 53° 58° (ENE) 22:35:20 437.485
POLYITAN 1 20 Dec 22:28:46 22:31:46 18° 95° (E) 22:34:45 437.675
CUBEBUG 1 20 Dec 22:29:54 22:33:58 39° 73° (ENE) 22:38:02 437.445
NANOSAT C BR1 20 Dec 22:30:50 22:33:52 19° 95° (E) 22:36:54 145.865
SO-50 20 Dec 22:34:22 22:37:15 16° 314° (NW) 22:40:13 436.795
AIST 2 20 Dec 22:35:05 22:38:46 27° 53° (NE) 22:42:23 435.215
ANTELSAT 20 Dec 22:38:31 22:42:59 41° 98° (E) 22:47:26 437.575/2403.000
HUMSAT D 20 Dec 22:38:45 22:42:44 49° 260° (W) 22:46:47 437.325/437.525
QB50P1 20 Dec 22:44:44 22:48:24 28° 97° (E) 22:52:04 145.935-145.965
Oscar 11 20 Dec 22:48:01 22:48:53 11° 269° (W) 22:49:45 145.826/435.025
UKube-1 20 Dec 22:56:11 22:57:27 11° 268° (W) 22:58:42 .
DANDE 20 Dec 22:59:45 23:04:03 16° 277° (W) 23:08:32 436.750
BEESAT 2 20 Dec 23:07:14 23:11:22 59° 244° (WSW) 23:15:24 435.950
POPSAT HIP 1 20 Dec 23:13:00 23:17:14 62° 101° (E) 23:21:28 437.405
TIGRISAT 20 Dec 23:13:45 23:18:29 82° 284° (WNW) 23:23:12 435.000
VELOX 1 20 Dec 23:18:40 23:21:52 20° 265° (W) 23:25:05 145.980
ZACube-1 20 Dec 23:19:40 23:19:44 10° 269° (W) 23:19:49 437.345
ESTCUBE 1 20 Dec 23:20:23 23:24:47 49° 260° (W) 23:29:12 437.505/2401.250
TISAT 1 20 Dec 23:33:16 23:37:18 48° 74° (ENE) 23:41:21 437.305
SPROUT 20 Dec 23:37:06 23:41:13 49° 74° (ENE) 23:45:21 437.525
BUGSAT 1 20 Dec 23:39:06 23:43:10 79° 283° (WNW) 23:47:15 437.445
DUCHIFAT 1 20 Dec 23:40:58 23:45:09 60° 285° (WNW) 23:49:21 145.980
UNISAT 6 20 Dec 23:43:20 23:47:41 38° 288° (WNW) 23:52:03 437.425
O/OREOS (USA 219) 20 Dec 23:47:34 23:50:20 16° 100° (E) 23:53:07 437.305
YUBILEINY 20 Dec 23:51:57 00:00:31 62° 91° (E) 00:09:03 435.215
QB50P2 20 Dec 23:54:51 23:58:50 40° 287° (WNW) 00:02:50 145.880/145.840
PCSat 21 Dec 00:02:46 00:08:01 51° 248° (WSW) 00:13:13 145.827
POLYITAN 1 21 Dec 00:03:55 00:07:43 32° 288° (WNW) 00:11:32 437.675
NANOSAT C BR1 21 Dec 00:06:01 00:09:44 30° 289° (WNW) 00:13:28 145.865
BEESAT 3 21 Dec 00:07:42 00:08:58 11° 253° (WSW) 00:10:14 437.485
CUBEBUG 1 21 Dec 00:07:55 00:10:27 15° 266° (W) 00:13:00 437.445
RS-15 21 Dec 00:10:26 00:15:47 15° 262° (W) 00:21:16 29.354- 29.394
AIST 2 21 Dec 00:13:46 00:17:16 25° 249° (WSW) 00:20:42 435.215
ANTELSAT 21 Dec 00:16:14 00:19:26 18° 293° (WNW) 00:22:37 437.575/2403.000
QB50P1 21 Dec 00:20:54 00:24:06 21° 291° (WNW) 00:27:19 145.935-145.965
SWISSCUBE 21 Dec 00:25:14 00:29:22 30° 70° (ENE) 00:33:31 437.505
ITUPSAT 1 21 Dec 00:25:55 00:29:57 27° 69° (ENE) 00:33:59 437.325
M-CUBED/EXP-1 PRIME 21 Dec 00:25:57 00:29:19 19° 62° (ENE) 00:32:43 437.505
BEESAT 21 Dec 00:49:37 00:54:14 50° 73° (ENE) 00:58:52 436.000
POPSAT HIP 1 21 Dec 00:52:13 00:52:35 10° 295° (WNW) 00:52:56 437.405
TISAT 1 21 Dec 01:12:04 01:13:22 11° 268° (W) 01:14:39 437.305
SPROUT 21 Dec 01:16:09 01:17:33 11° 268° (W) 01:18:57 437.525
O/OREOS (USA 219) 21 Dec 01:25:15 01:29:23 37° 295° (WNW) 01:33:32 437.305
VERMONT LUNAR 21 Dec 01:32:14 01:34:04 14° 142° (SE) 01:35:54 437.305
AUBIESAT-1 21 Dec 01:33:11 01:37:58 85° 72° (ENE) 01:42:54 437.475
Oscar 19 21 Dec 01:43:27 01:48:35 57° 101° (E) 01:53:40 437.125/150
STARS 21 Dec 01:45:41 01:49:11 24° 69° (ENE) 01:52:42 437.465
PHONESAT 2.4 21 Dec 01:48:01 01:49:18 12° 141° (SE) 01:50:35 2401.200-2431.200
KKS-1 21 Dec 01:49:16 01:53:24 40° 72° (ENE) 01:57:33 437.445
YUBILEINY 21 Dec 01:50:58 01:57:49 25° 290° (WNW) 02:04:42 435.215
Gurwin Techsat 1B 21 Dec 01:58:04 02:01:19 16° 93° (E) 02:04:34 435.225
M-CUBED/EXP-1 PRIME 21 Dec 01:59:18 02:03:53 46° 257° (WSW) 02:08:38 437.505
ITAMSAT 1 21 Dec 02:00:18 02:04:45 28° 97° (E) 02:09:10 435.822/435.867
SWISSCUBE 21 Dec 02:03:16 02:07:10 25° 264° (W) 02:11:05 437.505
ITUPSAT 1 21 Dec 02:03:41 02:07:44 27° 264° (W) 02:11:48 437.325
BEESAT 21 Dec 02:29:44 02:32:18 14° 267° (W) 02:34:53 436.000
VERMONT LUNAR 21 Dec 03:08:27 03:11:58 74° 156° (SSE) 03:15:30 437.305
HORYU 2 21 Dec 03:14:29 03:18:37 34° 98° (E) 03:22:43 437.375
STARS 21 Dec 03:21:55 03:25:32 25° 264° (W) 03:29:11 437.465
PHONESAT 2.4 21 Dec 03:23:55 03:27:31 63° 154° (SSE) 03:31:06 2401.200-2431.200
Oscar 19 21 Dec 03:24:22 03:27:23 16° 296° (WNW) 03:30:24 437.125/150
KKS-1 21 Dec 03:27:37 03:30:11 15° 267° (W) 03:32:46 437.445
Gurwin Techsat 1B 21 Dec 03:36:24 03:41:33 52° 287° (WNW) 03:46:40 435.225
ITAMSAT 1 21 Dec 03:39:43 03:44:08 30° 291° (WNW) 03:48:33 435.822/435.867
AO-7 21 Dec 03:52:46 04:00:18 36° 99° (E) 04:07:44 29.400- 29.500
GONETS M04 21 Dec 03:58:13 04:00:16 11° 76° (ENE) 04:02:18
AIST 1 21 Dec 04:14:59 04:19:12 60° 266° (W) 04:23:22
JAS-2 21 Dec 04:34:07 04:38:08 21° 93° (E) 04:41:59 435.910
MOZHAYETS 4 21 Dec 04:37:17 04:41:56 83° 77° (ENE) 04:46:36
VERMONT LUNAR 21 Dec 04:47:07 04:50:28 39° 352° (N) 04:53:49 437.305
HORYU 2 21 Dec 04:51:49 04:55:00 19° 293° (WNW) 04:58:12 437.375
PHONESAT 2.4 21 Dec 05:02:50 05:06:19 43° 350° (N) 05:09:48 2401.200-2431.200
PRISM 21 Dec 05:13:00 05:16:35 27° 70° (ENE) 05:20:10 437.425
SO-50 21 Dec 05:26:31 05:30:36 26° 51° (NE) 05:34:41 436.795
CUTE-I 21 Dec 05:33:05 05:35:55 14° 92° (E) 05:38:44 437.470
AO-7 21 Dec 05:45:15 05:53:06 47° 295° (WNW) 06:00:55 29.400- 29.500
GONETS M04 21 Dec 05:46:39 05:55:26 74° 93° (E) 06:04:14
CUBESAT XI-V 21 Dec 06:01:53 06:06:20 45° 73° (ENE) 06:10:46 437.345
JAS-2 21 Dec 06:18:21 06:23:27 38° 290° (WNW) 06:28:14 435.910
STRAND 1 21 Dec 06:23:17 06:28:21 69° 74° (ENE) 06:33:26 437.568
VERMONT LUNAR 21 Dec 06:25:49 06:29:11 41° 9° (N) 06:32:33 437.305
Cubesat XI-IV 21 Dec 06:37:53 06:43:12 68° 102° (ESE) 06:48:28 437.490
PHONESAT 2.4 21 Dec 06:41:58 06:45:25 40° 7° (N) 06:48:52 2401.200-2431.200
PRISM 21 Dec 06:48:52 06:52:03 21° 264° (W) 06:55:16 437.425
SO-50 21 Dec 07:06:44 07:11:12 36° 247° (WSW) 07:15:40 436.795
CUTE-I 21 Dec 07:11:06 07:16:19 59° 287° (WNW) 07:21:31 437.470
CUBESAT XI-V 21 Dec 07:41:15 07:43:57 15° 267° (W) 07:46:38 437.345
GONETS M04 21 Dec 07:46:48 07:53:03 21° 292° (WNW) 07:59:22
VERMONT LUNAR 21 Dec 08:04:08 08:07:39 67° 205° (SSW) 08:11:09 437.305
STRAND 1 21 Dec 08:06:21 08:07:57 11° 269° (W) 08:09:33 437.568
